Home > Weather > Guiyang > Past weeks

Flag for China Weather for the Past 2 Weeks in Guiyang, Guizhou, China

Now
57 °F

Fog.


Feels Like: 57 °F
Forecast: 57 / 72 °F
Wind: No wind

Location: Guiyang Airport

Current Time: Apr 30, 2016 at 7:36:40 AM

Latest Report: Apr 30, 2016 at 7:00 AM


Visibility: 1 mi

Pressure: 29.95 "Hg (26.38 "Hg at 1067m altitude)

Humidity: 100%

Dew Point: 57 °F

Location of GuiyangLocation

Historic Weather in Guiyang — Graph

°F

Guiyang Temperature Yesterday

Maximum temperature yesterday: 63 °F (at 4:00 PM)
Minimum temperature yesterday: 59 °F (at 2:00 AM)
Average temperature yesterday: 60 °F

High & Low Weather Summary for the Past Weeks

 TemperatureHumidityPressure
High88 °F (Apr 15, 3:00 PM)100% (Apr 15, 5:00 AM)30.18 "Hg (Apr 15, 5:00 AM)
Low43 °F (Apr 18, 2:00 AM)31% (Apr 15, 2:00 PM)29.62 "Hg (Apr 15, 6:00 PM)
Average61 °F83%29.95 "Hg
* Reported Apr 15 5:00 AM — Apr 30 5:00 AM, Guiyang, Weather by CustomWeather, © 2016

Note: Actual official high and low records may vary slightly from our data, if they occured in-between our weather recording intervals... More about our weather records

Advertising

Guiyang Weather History for the Previous 24 Hours

Scroll right to see more
 ConditionsComfort  
Time TempWeatherWind HumidityBarometerVisibility
5:00 AM
Sat, Apr 30
57 °FSprinkles. Fog.1 mph100%29.95 "Hg2 mi
4:00 AM57 °FSprinkles. Fog.1 mph100%29.98 "Hg1 mi
3:00 AM57 °FSprinkles. Fog.3 mph100%29.98 "Hg1 mi
2:00 AM57 °FSprinkles. Fog.3 mph100%30.01 "Hg2 mi
1:00 AM59 °FLight rain. Fog.1 mph100%30.01 "Hg3 mi
12:00 AM59 °FLight rain. Fog.No wind100%30.04 "Hg3 mi
11:00 PM
Fri, Apr 29
59 °FLight rain. Fog.1 mph100%30.07 "Hg3 mi
10:00 PM59 °FLight rain. Fog.1 mph94%30.04 "Hg3 mi
9:00 PM59 °FLight rain. Mostly cloudy.No wind94%30.04 "Hg4 mi
8:00 PM59 °FLight rain. Mostly cloudy.1 mph94%30.01 "Hg4 mi
7:00 PM61 °FLight rain. Mostly cloudy.1 mph83%30.01 "Hg5 mi
6:00 PM63 °FMostly cloudy.1 mph77%30.01 "HgN/A
5:00 PM61 °FMostly cloudy.1 mph88%30.01 "Hg5 mi
4:00 PM63 °FMostly cloudy.3 mph88%30.01 "Hg4 mi
3:00 PM61 °FMostly cloudy.3 mph88%30.04 "Hg4 mi
2:00 PM61 °FMostly cloudy.3 mph94%30.07 "Hg4 mi
1:00 PM61 °FMostly cloudy.3 mph88%30.09 "Hg5 mi
12:00 PM59 °FMostly cloudy.3 mph88%30.09 "Hg4 mi
11:00 AM59 °FLight rain. Fog.3 mph94%30.12 "Hg3 mi
10:00 AM59 °FFog.3 mph100%30.12 "Hg2 mi
9:00 AM59 °FLight rain. Fog.1 mph100%30.12 "Hg2 mi
8:00 AM59 °FLight rain. Fog.1 mph100%30.09 "Hg3 mi
7:00 AM59 °FFog.No wind100%30.09 "Hg3 mi
Weather by CustomWeather, © 2016

See weather overviewHow to use our weather pages